Date,TemperatureHighF,TemperatureAvgF,TemperatureLowF,DewpointHighF,DewpointAvgF,DewpointLowF,HumidityHigh,HumidityAvg,HumidityLow,PressureMaxIn,PressureMinIn,WindSpeedMaxMPH,WindSpeedAvgMPH,GustSpeedMaxMPH,PrecipitationSumIn
2013-1-1,38,29,15,37,18,0,96,66,40,30.12,29.91,9,2,12,0.00
2013-1-2,28,18,12,15,5,0,78,59,33,30.18,30.03,7,1,8,0.00
2013-1-3,33,22,10,11,6,0,77,52,30,30.18,30.09,15,4,24,0.00
2013-1-4,33,28,23,13,7,3,52,41,32,30.21,30.15,14,8,20,0.00
2013-1-5,39,30,20,20,13,5,81,50,33,30.30,30.06,10,3,14,0.00
2013-1-6,38,33,27,32,18,13,78,55,44,30.21,29.94,16,6,23,0.00
2013-1-7,36,31,26,23,16,9,76,56,34,30.39,30.18,10,3,12,0.00
2013-1-8,47,34,24,25,17,13,85,53,29,30.33,30.15,7,2,10,0.00
2013-1-9,49,41,35,37,22,11,77,47,32,30.44,30.15,11,5,16,0.00
2013-1-10,40,36,32,36,23,16,94,61,39,30.48,30.09,11,4,18,0.00
2013-1-11,61,52,40,55,38,17,88,60,35,30.09,29.88,16,5,20,0.00
2013-1-12,67,62,54,64,53,37,91,74,45,30.03,29.83,12,5,18,0.00
2013-1-13,66,60,41,63,51,36,92,74,45,30.00,29.77,18,7,26,0.00
2013-1-14,41,30,25,36,16,9,82,56,41,30.33,30.00,13,4,16,0.00
2013-1-15,34,29,24,19,13,8,76,53,37,30.36,30.00,8,2,12,0.00
2013-1-16,35,32,30,28,16,10,79,51,40,30.09,29.88,10,4,15,0.08
2013-1-17,37,33,24,23,14,4,68,46,35,30.21,29.97,17,3,23,0.43
2013-1-18,34,26,15,10,4,-3,58,38,30,30.48,30.12,14,5,19,0.00
2013-1-19,52,43,34,14,9,6,33,25,18,30.18,29.83,17,9,26,0.00
2013-1-20,43,31,23,16,1,-5,33,28,22,30.18,29.80,22,9,30,0.00
2013-1-21,23,18,8,9,-3,-14,59,39,33,30.15,29.94,18,8,26,0.00
2013-1-22,14,9,6,-10,-14,-16,35,33,29,30.24,29.12,15,8,24,0.00
2013-1-23,20,14,8,7,-10,-18,60,35,25,30.21,29.94,12,5,15,0.00
2013-1-24,25,16,11,8,-3,-9,62,43,32,30.42,29.94,14,4,22,0.00
2013-1-25,25,18,14,17,1,-8,72,47,34,30.36,29.94,9,4,13,0.00
2013-1-26,28,24,14,18,7,-5,72,49,34,30.33,30.00,10,4,14,0.00
2013-1-27,34,24,12,21,4,-6,59,42,31,30.39,30.15,10,4,15,0.00
2013-1-28,57,49,34,55,45,21,94,87,59,30.15,29.94,10,5,15,0.00
2013-1-29,67,60,55,56,46,35,98,64,33,30.00,29.65,14,6,20,0.00
2013-1-30,64,56,34,57,41,15,92,58,38,29.65,29.24,25,10,31,0.00
2013-1-31,34,25,19,20,8,-2,78,49,33,29.83,29.41,25,11,32,0.00
2013-2-1,20,11,6,9,-7,-15,64,45,35,30.27,29.83,18,8,24,5.47
2013-2-2,28,22,7,21,9,-15,75,56,35,30.21,29.88,10,5,15,19.88
2013-2-3,26,21,17,13,5,-5,65,49,35,29.97,29.83,14,5,22,0.00
2013-2-4,34,24,14,33,11,-1,97,60,31,29.97,29.77,9,3,13,0.00
2013-2-5,34,30,27,34,19,7,98,67,39,29.88,29.77,9,2,12,0.00
2013-2-6,40,30,21,19,8,0,57,39,23,30.21,29.88,10,3,14,0.00
2013-2-7,47,35,23,15,10,4,46,36,24,30.18,29.80,11,6,15,0.00
2013-2-8,45,34,25,41,16,2,90,49,33,30.21,29.71,19,9,25,0.00
2013-2-9,39,28,17,14,3,-1,64,35,24,30.36,29.15,9,2,14,0.00
2013-2-10,48,37,25,27,8,1,46,31,22,30.21,29.80,14,6,18,0.00
2013-2-11,53,46,37,45,22,8,81,43,21,29.94,29.71,20,10,29,0.00
2013-2-12,46,37,30,10,8,4,40,31,22,30.06,29.85,20,6,29,0.00
2013-2-13,33,30,28,26,16,7,86,56,36,29.85,29.68,7,2,10,0.00
2013-2-14,37,32,29,34,28,25,93,83,75,29.85,29.80,11,5,17,0.00
2013-2-16,30,23,16,11,0,-8,53,37,28,29.97,29.91,24,10,24,0.00
2013-2-17,24,17,13,-2,-7,-13,44,34,25,30.18,29.94,15,8,15,0.00
2013-2-18,51,34,16,13,3,-7,37,27,21,30.15,29.74,24,10,24,0.00
2013-2-19,50,32,20,34,13,-3,89,46,21,30.00,29.62,32,15,32,0.00
2013-2-20,21,19,15,3,-3,-7,47,37,33,30.18,29.94,26,12,26,0.00
2013-2-21,28,23,19,4,0,-3,49,37,32,30.27,30.12,14,7,14,0.00
2013-2-22,46,35,24,44,21,0,94,58,35,30.12,29.85,21,8,21,0.00
2013-2-23,41,36,29,21,13,5,55,40,26,29.94,29.83,16,5,16,0.00
2013-2-24,30,30,29,4,4,4,33,33,33,30.06,30.06,4,1,3,0.00
2013-2-25,45,35,23,10,6,3,52,29,22,30.12,29.85,12,6,12,0.00
2013-2-26,50,39,33,48,25,3,96,61,27,29.94,29.44,24,12,24,0.00
2013-2-27,49,39,31,47,35,10,97,86,41,29.85,29.47,17,10,17,0.08
2013-2-28,36,33,31,34,31,27,98,94,82,29.88,29.65,20,8,20,0.04
2013-3-1,35,31,26,31,24,17,93,77,60,30.00,28.88,12,5,12,0.00
2013-3-2,32,26,24,23,20,17,91,78,58,30.03,28.91,15,7,15,0.00
2013-3-3,31,25,18,20,16,10,88,69,51,30.03,28.91,14,4,14,0.00
2013-3-4,48,31,14,21,16,12,92,56,28,30.15,30.00,12,3,12,0.00
2013-3-5,40,35,30,33,24,18,98,65,49,30.06,29.56,17,7,17,0.00
2013-3-6,54,36,32,37,31,27,98,83,52,30.18,29.53,14,5,14,0.41
2013-3-7,48,36,31,30,27,23,85,71,50,30.33,30.15,14,6,14,0.12
2013-3-8,56,38,25,31,26,21,89,64,39,30.42,30.30,13,3,13,0.00
2013-3-9,58,43,26,36,28,22,91,60,38,30.36,30.09,14,6,14,0.00
2013-3-10,72,58,46,39,33,27,55,39,25,30.09,29.91,16,7,16,0.00
2013-3-11,62,52,41,52,41,33,97,68,36,29.91,29.62,28,8,28,0.21
2013-3-12,41,36,31,34,29,23,93,75,54,30.00,29.83,23,8,23,0.25
2013-3-13,34,30,26,32,22,14,98,72,53,30.21,29.12,26,11,26,0.00
2013-3-14,45,32,21,20,16,12,76,54,38,30.27,30.12,18,7,18,0.00
2013-3-15,52,39,27,41,27,14,97,64,49,30.12,29.85,14,5,14,0.04
2013-3-16,56,42,33,47,39,31,98,91,71,29.94,29.65,20,7,20,0.13
2013-3-17,41,34,32,31,27,21,92,76,52,30.15,29.06,15,7,15,0.00
2013-3-18,50,39,31,49,38,23,98,93,70,30.06,29.62,25,8,25,0.21
2013-3-19,40,35,29,36,22,14,94,60,42,30.00,29.77,31,14,31,0.04
2013-3-20,40,31,22,19,13,7,53,47,42,30.00,29.88,24,12,24,0.00
2013-3-21,33,24,17,19,12,6,80,59,44,29.97,29.85,16,8,16,0.00
2013-3-22,45,32,20,22,16,11,78,53,38,30.03,28.91,15,5,15,0.00
2013-3-23,55,36,21,27,19,11,72,51,31,30.06,29.97,13,3,13,0.00
2013-3-24,36,33,30,32,24,18,97,69,50,29.97,29.47,20,8,20,0.00
2013-3-25,40,34,32,33,31,29,98,91,70,29.83,29.41,14,5,14,0.00
2013-3-26,44,36,32,32,28,19,97,73,45,30.15,29.83,22,9,22,0.00
2013-3-27,46,37,32,30,25,20,92,63,42,30.24,30.12,24,11,24,0.00
2013-3-28,53,39,28,28,24,20,77,55,38,30.27,29.18,23,7,23,0.00
2013-3-29,57,42,26,31,25,20,86,54,35,30.30,30.18,18,4,18,0.00
2013-3-30,64,45,26,34,25,20,88,52,25,30.21,29.94,13,3,13,0.00
2013-3-31,56,47,42,47,37,22,95,70,44,29.97,29.77,17,5,17,0.08
2013-4-1,48,40,30,40,23,10,80,52,33,30.06,29.77,22,10,22,0.00
2013-4-2,47,34,21,21,14,8,60,44,30,30.21,30.06,22,7,22,0.00
2013-4-3,51,36,20,21,12,-9,57,39,12,30.36,30.21,18,5,18,0.00
2013-4-4,58,40,26,19,6,-11,53,31,6,30.33,29.97,12,5,12,0.00
2013-4-5,66,48,34,34,22,15,59,37,22,30.15,28.91,18,4,18,0.00
2013-4-6,62,46,30,20,5,-11,57,27,5,30.24,29.94,16,8,16,0.00
2013-4-7,75,61,54,46,20,-8,46,26,7,30.03,28.82,23,9,23,0.00
2013-4-8,73,62,50,53,47,35,85,59,44,30.09,28.91,24,7,24,0.00
2013-4-9,82,68,52,56,53,49,95,62,39,30.15,30.03,24,7,24,0.00
2013-4-10,82,70,59,63,59,52,96,70,48,30.09,29.94,30,8,30,0.04
2013-4-11,70,61,57,63,58,55,98,91,77,30.00,29.65,15,5,15,0.48
2013-4-12,59,48,42,59,42,29,98,80,56,29.94,29.59,23,9,23,0.33
2013-4-13,55,44,33,36,32,28,85,64,47,30.06,28.91,25,8,25,0.00
2013-4-14,68,50,33,43,36,28,95,62,37,30.12,29.97,14,6,14,0.00
2013-4-15,73,62,49,53,46,35,71,56,46,30.06,29.94,18,7,18,0.00
2013-4-16,82,64,56,62,56,50,98,77,46,30.21,30.00,20,7,20,0.79
2013-4-17,69,59,53,61,56,52,98,91,72,30.24,30.06,17,6,17,0.08
2013-4-18,87,72,59,63,57,52,96,64,31,30.06,29.74,24,10,24,0.00
2013-4-19,74,53,39,61,40,25,97,64,46,29.91,29.53,31,14,31,0.50
2013-4-20,48,40,31,33,26,18,92,59,41,30.36,29.91,22,10,22,0.00
2013-4-21,62,44,28,33,25,20,81,50,28,30.50,30.36,13,4,13,0.13
2013-4-22,75,55,37,43,32,20,54,42,32,30.39,30.18,12,5,12,0.00
2013-4-23,74,60,45,45,37,26,53,42,33,30.18,29.94,16,6,16,0.00
2013-4-24,64,51,34,56,44,31,98,78,49,30.18,29.80,24,9,24,0.67
2013-4-25,58,45,33,38,32,19,98,66,42,30.36,30.18,21,7,21,0.00
2013-4-26,69,50,30,38,30,18,85,49,30,30.44,30.33,9,3,9,0.00
2013-4-27,76,58,41,42,35,29,73,44,21,30.36,30.12,15,5,15,0.00
2013-4-28,66,57,53,60,54,42,98,88,57,30.12,29.88,11,6,11,0.37
2013-4-29,74,60,56,59,56,52,98,87,52,30.00,29.91,12,4,12,0.29
2013-4-30,59,59,59,54,54,54,83,83,83,30.00,30.00,0,0,1,0.00
2013-5-1,59,59,59,54,54,54,83,83,83,30.00,30.00,0,0,1,0.00
2013-5-2,59,59,59,54,54,54,83,83,83,30.00,30.00,0,0,1,0.00
2013-5-3,59,59,59,54,54,54,83,83,83,30.00,30.00,0,0,1,0.00
2013-5-4,59,59,59,54,54,54,83,83,83,30.00,30.00,0,0,1,0.00
2013-5-5,59,59,59,54,54,54,83,83,83,30.00,30.00,0,0,1,0.00
2013-5-6,59,59,59,54,54,54,83,83,83,30.00,30.00,0,0,1,0.00
2013-5-7,59,59,59,54,54,54,83,83,83,30.00,30.00,0,0,1,0.00
2013-5-8,59,59,59,54,54,54,83,83,83,30.00,30.00,0,0,1,0.00
2013-5-9,59,59,59,54,54,54,83,83,83,30.00,30.00,0,0,1,0.00
2013-5-10,59,59,59,54,54,54,83,83,83,30.00,30.00,0,0,1,0.00
2013-5-11,59,59,59,54,54,54,83,83,83,30.00,30.00,0,0,1,0.00
2013-5-12,59,55,40,54,44,24,83,69,39,30.12,28.94,24,3,24,0.00
2013-5-13,62,47,33,36,30,24,88,53,34,30.18,30.06,15,3,15,0.00
2013-5-14,76,58,37,55,41,30,80,55,35,30.15,29.85,21,6,21,0.00
2013-5-15,90,77,64,60,57,53,80,53,34,29.91,29.85,23,10,23,0.00
2013-5-16,86,71,62,65,60,52,97,70,40,30.06,28.88,13,4,13,0.08
2013-5-17,89,70,61,66,60,54,98,75,39,30.15,30.03,13,4,13,0.00
2013-5-18,86,70,61,64,59,53,90,70,43,30.12,30.03,10,4,10,0.00
2013-5-19,86,71,61,67,63,59,97,78,48,30.06,29.97,12,4,12,0.00
2013-5-20,89,74,63,74,66,62,98,79,47,30.06,29.94,16,5,16,0.00
2013-5-21,89,77,69,68,64,56,96,68,38,30.00,29.88,21,6,21,0.04
2013-5-22,83,73,64,64,61,59,95,68,50,29.91,29.83,18,8,18,0.04
2013-5-23,78,64,48,63,57,44,98,81,43,30.09,29.83,24,9,24,0.00
2013-5-24,62,51,42,45,37,32,90,63,39,30.30,30.06,20,8,20,0.00
2013-5-25,70,53,34,45,37,31,98,59,35,30.36,30.24,16,4,16,0.00
2013-5-26,79,59,37,43,33,9,87,43,10,30.33,30.24,12,3,12,0.00
2013-5-27,70,58,49,52,44,34,90,59,44,30.27,30.03,20,6,20,0.12
2013-5-28,87,74,61,64,59,52,83,61,40,30.09,30.00,22,8,22,0.00
2013-5-29,92,78,68,62,58,54,72,52,31,30.12,30.03,21,8,21,0.00
2013-5-30,93,78,64,66,62,56,92,59,38,30.24,30.09,15,5,15,0.00
2013-5-31,90,76,65,66,62,58,97,66,41,30.15,30.03,28,7,28,0.37
2013-6-1,86,75,65,69,66,62,97,75,48,30.06,29.85,23,9,23,0.54
2013-6-2,80,71,64,68,60,53,97,73,44,29.97,29.85,17,7,17,0.08
2013-6-3,76,63,52,60,53,44,90,72,45,30.09,29.97,15,4,15,0.00
2013-6-4,83,64,44,50,43,33,77,49,32,30.18,30.09,13,4,13,0.00
2013-6-5,90,71,55,58,51,42,71,51,33,30.15,29.94,10,4,10,0.00
2013-6-6,75,67,59,68,64,56,97,90,66,29.94,29.83,10,4,10,0.35
2013-6-7,76,62,55,58,56,53,98,82,50,29.94,29.85,11,4,11,0.00
2013-6-8,85,67,52,59,54,50,98,67,36,30.12,29.94,10,2,10,0.00
2013-6-9,87,74,64,66,60,56,88,66,39,30.15,30.03,15,6,15,0.00
2013-6-10,82,69,65,68,65,59,97,87,50,30.03,29.85,19,6,19,0.72
2013-6-11,87,73,62,65,62,59,98,72,42,30.00,29.88,20,7,20,0.00
2013-6-12,92,80,66,74,69,62,92,71,47,30.00,29.80,14,4,14,0.00
2013-6-13,80,71,63,73,61,51,97,75,44,29.94,28.64,44,7,44,0.08
2013-6-14,84,69,57,59,56,52,95,66,40,30.12,29.94,15,5,15,0.00
2013-6-15,89,70,51,62,56,50,98,65,37,30.18,30.03,11,3,11,0.00
2013-6-16,81,72,67,67,64,60,92,77,56,30.06,29.97,23,7,23,0.04
2013-6-17,89,75,66,72,66,59,98,76,40,30.03,29.94,14,4,14,0.00
2013-6-18,87,70,62,66,63,54,95,82,42,30.06,28.85,14,2,14,0.00
2013-6-19,87,70,54,56,51,44,90,56,28,30.18,30.03,9,3,9,0.00
2013-6-20,93,73,54,57,53,49,88,54,28,30.27,30.18,8,3,8,0.00
2013-6-21,91,76,58,61,57,54,91,56,32,30.30,30.21,15,4,15,0.00
2013-6-22,94,79,64,70,64,59,88,62,41,30.24,30.12,13,4,13,0.00
2013-6-23,93,79,64,71,64,58,96,64,39,30.21,30.09,15,4,15,0.00
2013-6-24,93,78,70,69,64,61,86,63,41,30.21,29.12,16,4,16,0.00
2013-6-25,95,81,68,73,69,65,95,70,42,30.12,29.94,20,7,20,0.00
2013-6-26,90,75,66,72,68,64,97,81,49,30.00,29.85,21,6,21,0.42
2013-6-27,88,74,66,72,68,66,97,82,52,29.88,29.74,18,5,18,0.13
2013-6-28,87,74,63,69,64,54,95,72,44,29.77,29.62,30,6,30,0.00
2013-6-29,86,68,60,67,61,58,97,81,44,29.74,29.65,12,4,12,0.08
2013-6-30,92,70,61,69,64,60,98,84,43,29.91,29.74,20,3,20,1.04
2013-7-1,94,74,64,69,64,60,97,77,39,29.97,29.85,10,4,10,0.46
2013-7-2,87,74,66,69,66,64,96,79,52,30.06,29.94,12,4,12,0.00
2013-7-3,88,76,68,72,68,64,96,79,51,30.18,30.06,10,4,10,0.00
2013-7-4,78,72,69,70,69,66,97,90,69,30.21,30.12,12,4,12,0.16
2013-7-5,86,71,66,71,68,65,97,90,57,30.18,30.12,11,3,11,0.96
2013-7-6,87,75,69,73,69,64,97,83,60,30.21,30.06,20,5,20,0.00
2013-7-7,86,73,64,68,64,59,96,75,49,30.18,30.06,13,4,13,0.00
2013-7-8,86,72,63,75,68,62,98,88,64,30.18,30.12,13,4,13,0.75
2013-7-9,92,75,70,75,71,68,97,87,57,30.15,30.06,24,5,24,1.12
2013-7-10,92,75,65,78,71,64,97,87,61,30.06,29.91,50,5,50,0.83
2013-7-11,86,72,60,70,61,50,98,74,43,30.06,28.97,10,3,10,0.00
2013-7-12,86,71,57,64,58,55,95,67,41,30.18,30.06,15,4,15,0.00
2013-7-13,89,75,61,68,64,59,95,70,45,30.27,30.12,13,4,13,0.00
2013-7-14,93,80,69,73,70,66,93,72,49,30.33,30.24,14,5,14,0.00
2013-7-15,100,84,73,72,69,64,90,64,38,30.42,30.30,10,3,10,0.00
2013-7-16,104,86,70,77,71,65,96,66,35,30.42,30.33,8,2,9,0.00
2013-7-17,100,84,71,78,72,68,95,71,40,30.39,30.27,10,2,10,0.00
2013-7-18,99,82,72,79,72,69,93,75,43,30.30,30.12,12,2,12,1.29
2013-7-19,96,81,73,76,72,64,95,77,45,30.15,29.97,21,4,21,0.04
2013-7-20,87,74,69,74,70,67,96,89,62,30.00,29.94,14,4,14,0.37
2013-7-21,92,77,68,76,70,65,97,79,45,30.06,29.97,7,2,7,0.04
2013-7-22,79,72,67,72,69,66,97,91,78,30.03,29.85,9,3,9,1.54
2013-7-23,89,75,68,77,69,66,97,84,51,29.91,29.80,20,5,20,0.00
2013-7-24,85,71,59,66,58,50,95,68,40,30.06,29.88,13,3,13,0.00
2013-7-25,87,69,54,56,53,50,91,61,34,30.15,30.06,8,3,9,0.00
2013-7-26,86,70,54,61,56,53,96,65,38,30.15,30.06,10,3,10,0.00
2013-7-27,75,67,64,68,63,61,96,87,66,30.06,29.88,15,4,15,0.33
2013-7-28,75,64,52,62,52,46,98,67,41,30.12,28.97,18,5,18,0.00
2013-7-29,79,66,55,58,53,50,93,65,41,30.27,30.09,14,4,14,0.00
2013-7-30,88,70,55,63,57,54,97,69,39,30.30,30.18,9,2,9,0.00
2013-7-31,76,69,65,68,64,62,95,85,68,30.21,30.00,12,3,12,0.08
2013-8-1,86,73,64,68,63,54,97,74,41,30.03,29.94,17,5,17,0.12
2013-8-2,84,70,57,65,59,52,98,70,41,30.09,30.00,12,3,12,0.00
2013-8-3,89,72,61,71,63,56,97,77,43,30.06,30.03,13,3,13,0.29
2013-8-4,84,68,56,62,56,50,97,68,40,30.18,30.06,14,4,14,0.00
2013-8-5,86,66,52,60,54,51,98,69,39,30.18,30.06,7,2,9,0.00
2013-8-6,87,73,62,63,58,55,88,63,40,30.09,30.00,12,4,12,0.00
2013-8-7,90,76,65,74,68,62,94,78,47,30.03,29.97,13,4,13,0.00
2013-8-8,88,74,68,76,71,67,97,91,64,30.06,29.97,23,2,23,0.75
2013-8-9,87,73,66,73,66,59,97,82,44,30.09,29.97,11,3,11,0.66
2013-8-10,67,67,67,63,63,63,88,88,88,30.06,30.06,0,0,0,0.66
2013-8-11,83,71,65,67,63,52,91,77,58,30.15,30.06,6,1,6,0.66
2013-8-12,89,74,60,70,64,60,97,72,43,30.15,29.97,13,3,13,0.00
2013-8-13,82,69,53,69,60,47,97,75,43,30.09,29.91,18,6,18,0.00
2013-8-14,79,61,49,53,49,46,96,70,41,30.24,30.06,10,3,10,0.00
2013-8-15,85,64,49,56,50,47,98,66,34,30.21,30.15,9,2,9,0.00
2013-8-16,87,68,52,57,53,50,93,62,35,30.21,30.15,10,2,10,0.00
2013-8-17,88,71,59,62,56,53,86,63,37,30.27,30.21,9,4,9,0.00
2013-8-18,81,67,57,66,61,54,96,84,58,30.24,30.18,12,3,12,0.00
2013-8-19,92,73,60,70,62,54,98,73,33,30.21,30.15,8,2,9,0.00
2013-8-20,93,73,58,70,61,57,98,71,37,30.27,30.18,8,2,9,0.00
2013-8-21,93,73,62,71,65,61,97,78,42,30.27,30.12,9,3,9,0.00
2013-8-22,89,74,64,71,66,63,97,79,49,30.18,30.06,18,6,18,0.00
2013-8-23,93,76,65,70,64,55,97,70,37,30.24,30.09,10,4,10,0.50
2013-8-24,93,73,60,62,57,53,84,60,35,30.36,30.21,9,3,9,0.00
2013-8-25,90,71,58,75,58,55,93,68,35,30.39,29.24,13,3,13,0.00
2013-8-26,92,76,62,68,62,56,88,63,39,30.30,30.12,14,4,14,0.00
2013-8-27,88,76,69,75,71,66,94,83,60,30.12,30.03,10,4,10,0.00
2013-8-28,88,79,69,75,72,68,95,80,58,30.03,29.94,13,5,14,0.00
2013-8-29,92,75,67,72,68,65,97,80,50,30.12,30.00,7,2,7,0.00
2013-8-30,94,77,64,74,66,63,98,72,42,30.06,29.91,12,3,12,0.00
2013-8-31,91,77,69,74,70,66,97,80,55,29.94,29.85,13,5,13,0.57
2013-9-1,90,76,67,71,68,66,97,79,47,29.91,29.83,11,3,11,0.04
2013-9-2,87,76,67,72,68,63,97,80,56,29.88,29.80,15,4,15,0.00
2013-9-3,67,63,52,63,60,51,96,88,86,30.09,29.88,1,1,1,0.00
2013-9-4,87,67,49,62,54,48,98,69,35,30.15,30.09,13,2,13,0.00
2013-9-5,86,69,56,65,57,44,97,70,35,30.24,29.12,15,3,15,0.00
2013-9-6,85,64,46,53,48,39,95,62,25,30.27,30.12,9,3,9,0.00
2013-9-7,90,68,49,64,55,47,96,67,38,30.12,29.97,8,3,10,0.00
2013-9-8,91,75,64,70,65,62,95,74,46,30.06,29.97,10,3,10,0.00
2013-9-9,91,75,62,70,65,60,94,73,45,30.09,28.97,13,5,13,0.00
2013-9-10,98,82,72,74,71,68,90,70,44,30.15,30.06,12,6,16,0.00
2013-9-11,93,79,72,74,71,66,94,79,47,30.18,30.03,13,4,13,0.04
2013-9-12,78,71,62,72,67,58,97,89,65,30.03,29.88,17,4,17,0.54
2013-9-13,69,58,49,58,49,43,97,74,47,30.09,29.91,17,7,17,0.00
2013-9-14,77,57,41,50,44,40,97,68,33,30.18,30.06,12,2,12,0.00
2013-9-15,76,60,43,58,49,42,98,71,38,30.18,30.06,10,2,10,0.00
2013-9-16,77,62,54,60,53,47,98,75,41,30.33,30.12,13,3,13,0.12
2013-9-17,80,61,48,54,50,47,98,71,40,30.36,30.21,10,4,10,0.04
2013-9-18,80,64,54,63,57,51,96,79,51,30.21,30.09,10,5,10,0.00
2013-9-19,72,66,64,68,65,62,98,94,85,30.15,30.06,12,4,12,0.00
2013-9-20,92,74,65,70,66,64,98,80,42,30.06,29.85,15,5,15,0.00
2013-9-21,76,65,54,67,56,47,98,74,45,29.88,28.67,16,4,16,0.17
2013-9-22,67,55,48,51,46,40,98,74,46,30.06,29.88,12,4,12,0.00
2013-9-23,71,54,43,49,44,40,98,71,41,30.15,30.03,10,3,10,0.00
2013-9-24,75,55,38,48,44,38,98,71,37,30.12,29.97,10,2,10,0.00
2013-9-25,75,59,47,53,49,45,97,74,42,30.00,29.91,9,2,9,0.00
2013-9-26,87,67,49,56,49,42,96,60,26,30.12,29.94,9,3,9,0.00
2013-9-27,85,64,46,56,50,44,94,63,33,30.21,30.12,8,3,8,0.00
2013-9-28,86,66,51,57,52,48,97,65,34,30.24,30.15,8,4,9,0.00
2013-9-29,79,64,54,60,56,52,98,79,49,30.15,30.03,15,4,15,0.00
2013-9-30,77,65,60,66,59,56,97,84,50,30.06,30.00,8,3,9,0.00
2013-10-1,83,68,56,63,58,54,98,75,42,30.12,30.03,13,3,13,0.00
2013-10-2,88,70,59,67,62,58,97,79,44,30.15,30.09,9,2,9,0.00
2013-10-3,83,70,64,70,66,62,97,86,55,30.15,30.06,17,3,17,0.08
2013-10-4,88,70,63,68,65,60,98,86,44,30.12,30.06,9,3,9,0.50
2013-10-5,85,72,66,72,67,64,96,85,57,30.12,30.03,15,4,15,0.41
2013-10-6,81,68,52,68,64,51,98,88,56,30.03,29.80,23,6,23,1.70
2013-10-7,63,53,45,52,44,39,98,76,45,30.15,29.83,15,6,15,0.38
2013-10-8,74,55,41,52,43,40,98,70,36,30.30,30.15,14,2,14,0.00
2013-10-9,78,57,46,48,44,37,92,65,33,30.30,30.21,10,4,10,0.00
2013-10-10,84,60,45,50,44,40,89,61,30,30.21,30.09,7,2,7,0.00
2013-10-11,84,64,46,54,46,40,88,55,30,30.12,30.06,9,2,9,0.00
2013-10-12,82,63,51,60,55,50,97,77,46,30.18,30.09,9,2,9,0.00
2013-10-13,77,63,57,62,58,48,95,84,57,30.33,30.18,15,3,15,0.00
2013-10-14,79,60,47,52,48,44,97,68,40,30.36,30.24,12,3,12,0.00
2013-10-15,70,59,48,62,56,46,98,90,73,30.24,29.97,10,4,10,0.00
2013-10-16,65,62,53,63,60,46,98,91,73,30.00,29.91,15,5,15,0.25
2013-10-17,56,48,40,50,45,39,98,88,74,29.97,29.85,13,4,13,0.16
2013-10-18,67,52,42,46,42,37,98,72,40,30.03,29.94,16,5,16,0.00
2013-10-19,51,46,39,47,42,38,98,89,75,29.97,29.80,15,4,15,0.17
2013-10-20,64,48,37,41,38,35,98,70,41,30.03,29.94,17,6,17,0.00
2013-10-21,68,56,44,49,38,35,88,53,34,30.00,29.91,15,7,15,0.00
2013-10-22,55,43,33,49,31,24,94,65,35,30.03,29.88,22,5,22,0.12
2013-10-23,48,39,33,38,34,28,98,85,51,29.97,29.77,20,6,20,0.61
2013-10-24,50,38,32,35,29,23,98,74,40,30.15,29.97,18,5,18,0.00
2013-10-25,52,38,28,31,27,22,97,67,42,30.36,30.15,15,5,15,0.00
2013-10-26,47,40,32,32,27,24,75,59,43,30.21,29.91,20,8,20,0.00
2013-10-27,61,43,30,43,31,27,96,68,37,30.09,30.00,9,2,9,0.00
2013-10-28,70,47,30,43,33,27,98,64,31,30.30,30.06,8,1,9,0.00
2013-10-29,64,50,38,42,37,34,97,65,38,30.36,30.21,8,3,8,0.00
2013-10-30,66,56,48,58,47,34,98,72,55,30.21,30.06,10,4,10,0.00
2013-10-31,65,62,59,61,58,55,98,88,70,30.06,29.41,26,9,26,0.78
2013-11-1,64,56,50,62,46,40,98,72,46,29.77,29.38,33,8,33,0.34
2013-11-2,53,48,42,45,39,34,97,73,52,30.03,29.74,18,8,18,0.00
2013-11-3,62,45,38,42,36,27,98,74,40,30.39,30.03,6,2,8,0.00
2013-11-4,56,44,33,35,30,26,80,60,40,30.42,30.30,14,6,14,0.00
2013-11-5,65,53,47,42,36,33,64,52,42,30.39,30.24,9,5,9,0.00
2013-11-6,68,57,45,59,44,30,98,66,43,30.24,29.94,22,7,22,0.54
2013-11-7,50,43,35,48,31,22,98,67,40,30.18,29.97,21,9,21,0.16
2013-11-8,51,38,30,33,28,20,97,71,44,30.30,30.12,15,5,15,0.00
2013-11-9,61,48,32,33,29,24,87,50,35,30.21,29.97,25,9,25,0.00
2013-11-10,51,42,29,37,28,22,82,59,43,30.30,30.00,29,9,29,0.00
2013-11-11,50,40,26,39,30,22,98,70,47,30.27,30.03,18,6,18,0.04
2013-11-12,39,29,23,32,21,15,98,72,52,30.50,30.15,15,8,15,0.00
2013-11-13,41,30,20,22,17,14,91,61,36,30.50,30.33,15,6,15,0.00
2013-11-14,54,40,28,26,18,14,60,43,21,30.33,30.12,17,8,17,0.04
2013-11-15,55,46,40,40,24,15,74,41,32,30.15,30.09,17,7,17,0.00
2013-11-16,50,49,46,46,44,39,89,85,74,30.15,30.09,11,5,11,0.00
2013-11-17,61,58,50,59,53,35,97,86,49,30.15,28.85,30,12,30,0.65
2013-11-18,53,45,34,39,32,22,83,61,42,30.12,29.74,36,13,36,0.00
2013-11-19,50,36,28,28,22,17,78,58,41,30.33,30.12,13,4,13,0.00
2013-11-20,50,38,28,30,24,21,74,58,41,30.33,30.24,15,7,15,0.00
2013-11-21,59,51,38,44,37,23,86,59,47,30.33,30.21,10,4,10,0.04
2013-11-22,52,47,35,51,44,28,98,92,71,30.30,30.12,21,7,21,0.39
2013-11-23,39,29,19,29,20,4,97,68,43,30.42,30.24,26,9,26,0.00
2013-11-24,29,17,14,8,5,2,71,58,39,30.50,29.41,16,5,16,0.00
2013-11-25,35,27,16,28,13,6,90,56,40,30.42,30.15,17,5,17,0.00
2013-11-26,35,32,29,32,30,27,98,94,86,30.15,29.83,8,3,8,0.04
2013-11-27,33,27,24,28,17,8,92,67,43,30.15,29.83,22,10,22,0.00
2013-11-28,30,26,20,18,16,13,81,65,51,30.36,30.15,13,5,13,0.00
2013-11-29,48,30,16,26,17,11,85,60,38,30.56,30.36,8,2,8,0.00
2013-11-30,48,34,24,27,22,16,75,62,45,30.48,30.15,13,5,13,0.08
2013-12-1,46,40,36,31,27,23,74,60,53,30.15,29.94,10,4,10,0.00
2013-12-2,52,40,33,37,33,29,97,78,52,29.94,29.83,8,2,8,0.04
2013-12-3,58,44,35,44,39,35,98,84,55,29.88,29.80,10,4,10,0.04
2013-12-4,60,54,45,52,47,42,93,79,67,29.94,29.80,13,6,13,0.00
2013-12-5,64,51,32,60,46,29,98,83,61,30.09,29.80,17,8,17,0.37
2013-12-6,33,29,25,31,27,23,96,91,83,30.30,30.06,12,5,12,0.04
2013-12-7,38,24,13,23,13,5,92,65,41,30.50,30.27,13,4,13,0.00
2013-12-8,31,24,16,30,18,8,98,79,65,30.44,29.97,16,8,16,0.00
2013-12-9,33,30,24,33,25,15,98,81,62,30.15,29.91,17,9,17,0.00
2013-12-10,31,23,18,19,12,6,91,65,43,30.24,30.03,18,8,18,0.00
2013-12-11,34,22,12,18,12,6,82,64,48,30.39,30.18,17,8,17,0.00
2013-12-12,24,16,8,8,1,-4,67,52,33,30.42,30.21,15,6,15,0.00
2013-12-13,38,25,15,27,10,2,84,54,43,30.21,29.12,9,5,9,0.00
2013-12-14,35,32,30,35,31,26,98,96,85,30.18,29.80,15,5,15,0.08
2013-12-15,35,25,22,34,15,8,98,65,54,30.03,29.80,23,12,24,0.08
2013-12-16,29,24,20,28,17,10,98,78,58,30.12,29.94,17,5,17,0.04
2013-12-17,32,28,26,31,24,19,98,82,60,30.06,29.94,20,8,20,0.00
2013-12-18,35,27,22,23,17,11,91,67,48,30.18,30.00,18,7,18,0.00
2013-12-19,51,42,32,34,25,15,61,50,45,30.06,29.94,13,6,14,0.08
2013-12-20,57,52,49,55,43,29,98,73,45,29.94,29.85,21,9,21,0.04
2013-12-21,67,59,56,62,58,55,98,95,74,29.85,29.53,21,9,24,2.05
2013-12-22,67,55,41,61,50,38,98,82,56,30.00,29.53,25,10,25,0.61
2013-12-23,41,33,27,39,23,14,97,68,55,30.30,30.00,20,9,20,0.00
2013-12-24,27,17,9,21,7,-1,88,63,48,30.48,30.24,15,7,15,0.00
2013-12-25,31,23,9,22,11,0,76,61,42,30.42,30.09,15,5,15,0.00
2013-12-26,39,32,26,25,19,13,77,58,40,30.30,30.06,25,8,25,0.00
2013-12-27,48,37,31,28,23,17,70,56,46,30.33,30.24,12,6,12,0.00
2013-12-28,55,42,34,32,26,21,70,53,43,30.24,30.00,15,7,15,0.00
2013-12-29,43,39,32,41,33,22,98,81,45,30.00,29.77,22,5,26,0.35
2013-12-30,32,27,23,27,17,13,84,67,57,30.18,29.91,20,6,20,0.00
2013-12-31,29,24,19,16,13,9,79,63,50,30.27,30.03,23,8,23,0.00
2014-1-1,46,32,19,27,21,14,87,66,48,30.24,28.97,12,2,13,0.00
2014-1-2,28,22,10,25,16,2,95,79,69,30.09,29.77,22,5,22,0.00